Regional Weather Roundup
Issued by NWS Columbia, SC

Home | Current Version | Previous Version | Text Only | Print | Product List | Glossary On
Versions: 1 2 3 4 5 6 7 8 9 10 11 12 13 14 15 16 17 18 19 20 21 22 23 24 25 26 27
000
ASUS42 KCAE 250910
RWRCAE
REGIONAL WEATHER ROUNDUP
NATIONAL WEATHER SERVICE COLUMBIA SC
500 AM EDT SAT MAR 25 2017

NOTE: "FAIR" INDICATES FEW OR NO CLOUDS BELOW 12,000 FEET WITH NO
SIGNIFICANT WEATHER AND/OR OBSTRUCTIONS TO VISIBILITY.

NOT ALL STATIONS ARE QUALITY CONTROLLED BY THE NATIONAL
WEATHER SERVICE. USE DATA WITH CAUTION...ESPECIALLY
DEWPOINT OBSERVATIONS.

SCZ001>056-GAZ040-063>065-077-251000-
...UPSTATE SOUTH CAROLINA...

CITY           SKY/WX    TMP DP  RH WIND       PRES   REMARKS
ANDERSON       CLOUDY    53  49  86 N5        30.29S
LIBERTY        CLOUDY    51  47  87 N3        30.29S
SPARTANBURG    MOCLDY    50  45  81 CALM      30.29S
CLEMSON        MOCLDY    59  49  69 CALM      30.30F
GREENVILLE     CLOUDY    56  47  71 CALM      30.30S
GREENWOOD      CLOUDY    52  48  86 CALM      30.30S
GREER          PTCLDY    54  47  77 CALM      30.28F
ROCK HILL      CLOUDY    52  47  83 SW6       30.30S
CHESTER        MOSUNNY   54  48  82 S3        30.30S
LAURENS        MOSUNNY   54  50  87 S3        30.29S


...CENTRAL SOUTH CAROLINA...

CITY           SKY/WX    TMP DP  RH WIND       PRES   REMARKS
COLUMBIA APT   CLOUDY    57  51  80 CALM      30.28F
COLUMBIA OWENS MOCLDY    56  51  84 CALM      30.30F
MCENTIRE ANGB  CLOUDY    52  51  94 E3        30.29F
ORANGEBURG     CLOUDY    54  51  90 CALM      30.29F
SUMTER SHAW    CLOUDY    52  49  89 CALM      30.28F
NEWBERRY       MOSUNNY   54  52  94 CALM      30.32S
AIKEN          FAIR      54  50  87 SE3       30.31F
BARNWELL       FAIR      55  54  94 CALM      30.28F
MANNING        CLOUDY    54  50  87 CALM      30.30F
CAMDEN         FAIR      52  48  87 CALM      30.30F
LANCASTER      MOSUNNY   55  52  88 CALM      30.30S
WINNSBORO      MOSUNNY   55  52  88 S5        30.29S


...EASTERN AND COASTAL SOUTH CAROLINA...

CITY           SKY/WX    TMP DP  RH WIND       PRES   REMARKS
MYRTLE BEACH   CLOUDY    63  55  77 S8        30.33F
N MYRTLE BCH   CLOUDY    57  55  93 CALM      30.32F
CONWAY         PTSUNNY   46  45  93 CALM      30.32F
MARION         FAIR      50  48  93 CALM      30.31F
HARTSVILLE     FAIR      54  50  87 CALM      30.30F
FLORENCE       MOCLDY    53  51  93 CALM      30.31F
DARLINGTON     PTCLDY    53  50  89 SW6       30.31F
CHARLESTON APT CLOUDY    59  54  83 SE6       30.29F
MOUNT PLEASANT CLOUDY    63  54  72 SE6       30.30F
WALTERBORO     CLOUDY    54  52  94 CALM      30.29F
BEAUFORT       MOCLDY    58  57  97 CALM      30.28F FOG


...EASTERN GEORGIA...

CITY           SKY/WX    TMP DP  RH WIND       PRES   REMARKS
AUGUSTA BUSH F MOCLDY    54  52  93 CALM      30.27F
AUGUSTA DANIEL PTCLDY    58  52  80 SE6       30.28F
THOMSON        PTCLDY    54  51  89 SE3       30.32S
WASHINGTON     FAIR      55  54  94 CALM      30.28S
CLAXTON        FAIR     N/A N/A N/A CALM      30.26F
SYLVANIA       CLOUDY   N/A N/A N/A SE3       30.27F
STATESBORO     CLOUDY    53  53 100 CALM      30.26F
SAVANNAH       CLOUDY    57  54  89 CALM      30.27F


...SOUTHERN NORTH CAROLINA...

CITY           SKY/WX    TMP DP  RH WIND       PRES   REMARKS
CHARLOTTE      MOCLDY    55  48  77 S6        30.30F
MONROE         MOCLDY    56  48  74 S5        30.29S
WADESBORO      CLOUDY    56  49  75 CALM      30.29F
ROCKINGHAM     CLOUDY    55  51  87 S3        30.30F
RUTHERFORDTON  PTCLDY    52  47  82 CALM      30.30F
ASHEVILLE      MOCLDY    49  43  80 CALM      30.30F

$$




USA.gov is the U.S. government's official web portal to all federal, state and local government web resources and services.